Regional Weather Roundup
Issued by NWS

Home | Current Version | Previous Version | Graphics & Text | Print | Product List | Glossary On
Versions: 1 2 3 4 5 6 7 8 9 10 11 12 13 14 15 16 17 18 19 20 21 22 23 24 25 26 27 28 29 30 31 32 33 34 35 36 37 38 39 40 41 42 43 44 45 46 47
000
ASUS45 KCYS 141010
RWRWY

WYOMING REGIONAL WEATHER ROUNDUP
NATIONAL WEATHER SERVICE CHEYENNE WY
400 AM MDT MON JUL 14 2014

NOTE:  "FAIR" INDICATES FEW OR NO CLOUDS BELOW 12,000 FEET
WITH NO SIGNIFICANT WEATHER AND/OR OBSTRUCTIONS TO VISIBILITY.

WYZ001-141100-
YELLOWSTONE NATIONAL PARK

CITY           SKY/WX    TMP DP  RH WIND       PRES   REMARKS
LK YELLOWSTONE   N/A     44  42  93 CALM      30.51R
W YELLOWSTONE  NOT AVBL

$$
WYZ002>013-054>058-071-098>099-141100-
NORTHERN WYOMING

CITY           SKY/WX    TMP DP  RH WIND       PRES   REMARKS
JACKSON        PTCLDY    54  48  82 N5        30.37S
CODY           CLEAR     61  43  51 N5        30.33S
GREYBULL       CLEAR     69  44  40 NW9       30.22S
WORLAND        PTCLDY    69  44  40 N7        30.24S
SHERIDAN       CLEAR     54  47  77 CALM      30.29R
BUFFALO        CLEAR     55  45  68 W7        30.33F
GILLETTE       CLEAR     55  46  71 CALM      30.28S
HULETT         FAIR      54  41  62 MISG      30.30
NEWCASTLE      FAIR      55  46  71 N5        30.26

$$
WYZ014>020-022>026-101>103-141100-
CENTRAL WYOMING

CITY           SKY/WX    TMP DP  RH WIND       PRES   REMARKS
BIG PINEY      CLEAR     53  41  63 E3        30.43R
PINEDALE       MOSUNNY   46  45  93 W5        30.43S
DUBOIS         FAIR      52  41  66 NW7       30.45S
LANDER         PTCLDY    62  43  49 CALM      30.33R
RIVERTON       MOCLDY    65  42  43 E8        30.34S
CASPER         MOCLDY    57  49  74 CALM      30.32R
DOUGLAS        PTCLDY    56  47  71 NW3       30.30R

$$
WYZ021-027>030-104>119-141100-
SOUTHERN WYOMING

CITY           SKY/WX    TMP DP  RH WIND       PRES   REMARKS
EVANSTON       PTCLDY    63  42  46 E7        30.38R
KEMMERER       MOSUNNY   59  41  51 NE8G16    30.43R
FORT BRIDGER   FAIR      61  43  52 NE8       30.42R
ROCK SPRINGS   CLEAR     61  41  47 E7        30.39S
DIXON          FAIR      58  46  63 NE8       30.38R
RAWLINS        CLEAR     57  41  55 NE8       30.40R
SARATOGA       FAIR      54  45  71 CALM      30.40S
LARAMIE        CLEAR     54  49  83 NW7       30.42R
CHEYENNE       CLEAR     59  52  77 NW8       30.34R
TORRINGTON     PTCLDY    61  55  81 N10       30.23R

$$


USA.gov is the U.S. government's official web portal to all federal, state and local government web resources and services.